Weather History for KMOX - August, 2013

Change the Weather History Date:

Thursday, August 8, 2013

  Actual Average Record
Temperature  
Mean Temperature 67 °F -  
Max Temperature 77 °F 76 °F 91 °F (2001)
Min Temperature 57 °F 54 °F 48 °F (1999)
Cooling Degree Days 2    
Growing Degree Days 17 (Base 50)    
Moisture  
Dew Point 58 °F    
Average Humidity 79    
Maximum Humidity 94    
Minimum Humidity 50    
Precipitation  
Precipitation 0.00 in - - ()
Sea Level Pressure  
Sea Level Pressure 30.02 in    
Wind  
Wind Speed 3 mph (SW)    
Max Wind Speed 8 mph    
Max Gust Speed -    
Visibility 10 miles    
Events      
Averages and records for this station are not official NWS values.
T = Trace of Precipitation, MM = Missing Value Source: NWS Daily Summary

Daily Weather History Graph

Daily Weather History Graph

Search for Another Location

Airport or City:

Trip Planner

Search our weather history database for the weather conditions in past years. The results will help you decide how hot, cold, wet, or windy it might be!

Date:

Astronomy

Aug. 08, 2013 Rise Set
Actual Time 6:16 AM CDT 8:41 PM CDT
Civil Twilight 5:42 AM CDT 9:14 PM CDT
Nautical Twilight 5:01 AM CDT 9:56 PM CDT
Astronomical Twilight 4:14 AM CDT 10:42 PM CDT
Moon 8:12 AM CDT (8/8) 9:10 PM CDT (8/8)
Length of Visible Light 15h 32m
Length of Day
14h 25m
Waxing Crescent, 3% of the Moon is Illuminated
Aug 8
Waxing Crescent
Aug 14
First Quarter
Aug 20
Full
Aug 28
Last Quarter
Sep 5
New

Hourly Weather History & Observations

Time (CDT) Temp. Dew Point Humidity Pressure Visibility Wind Dir Wind Speed Gust Speed Precip Events Conditions
12:09 AM 60.8 °F 55.4 °F 82% 30.02 in 10.0 mi SSE 3.5 mph - N/A   Clear
12:29 AM 57.2 °F 55.4 °F 94% 30.02 in 10.0 mi Calm Calm - N/A   Scattered Clouds
12:49 AM 57.2 °F 55.4 °F 94% 30.02 in 10.0 mi SSE 3.5 mph - N/A   Mostly Cloudy
1:09 AM 57.2 °F 55.4 °F 94% 30.02 in 10.0 mi Calm Calm - N/A   Scattered Clouds
1:29 AM 57.2 °F 55.4 °F 94% 30.02 in 10.0 mi SSE 3.5 mph - N/A   Mostly Cloudy
1:49 AM 57.2 °F 55.4 °F 94% 30.01 in 10.0 mi SE 4.6 mph - N/A   Mostly Cloudy
2:09 AM 59.0 °F 55.4 °F 88% 30.01 in 10.0 mi SE 4.6 mph - N/A   Scattered Clouds
2:29 AM 59.0 °F 55.4 °F 88% 30.01 in 10.0 mi SE 4.6 mph - N/A   Mostly Cloudy
2:49 AM 59.0 °F 55.4 °F 88% 30.01 in 10.0 mi SE 3.5 mph - N/A   Scattered Clouds
3:09 AM 59.0 °F 55.4 °F 88% 30.01 in 10.0 mi SE 3.5 mph - N/A   Scattered Clouds
3:29 AM 59.0 °F 55.4 °F 88% 30.00 in 10.0 mi SSE 5.8 mph - N/A   Mostly Cloudy
3:49 AM 59.0 °F 55.4 °F 88% 30.00 in 10.0 mi SE 4.6 mph - N/A   Overcast
4:09 AM 59.0 °F 55.4 °F 88% 30.00 in 10.0 mi SSE 3.5 mph - N/A   Overcast
4:28 AM 59.0 °F 55.4 °F 88% 29.99 in 10.0 mi SSE 4.6 mph - N/A   Overcast
4:49 AM 59.0 °F 55.4 °F 88% 29.99 in 10.0 mi Calm Calm - N/A   Overcast
5:08 AM 60.8 °F 57.2 °F 88% 29.99 in 10.0 mi Calm Calm - N/A   Overcast
5:29 AM 59.0 °F 57.2 °F 94% 30.00 in 10.0 mi Calm Calm - N/A   Overcast
5:49 AM 59.0 °F 57.2 °F 94% 29.99 in 10.0 mi Calm Calm - N/A   Overcast
6:09 AM 59.0 °F 57.2 °F 94% 30.00 in 10.0 mi Calm Calm - N/A   Overcast
6:29 AM 59.0 °F 57.2 °F 94% 30.00 in 10.0 mi Calm Calm - N/A   Mostly Cloudy
6:49 AM 60.8 °F 57.2 °F 88% 30.01 in 10.0 mi Calm Calm - N/A   Overcast
7:09 AM 60.8 °F 57.2 °F 88% 30.01 in 10.0 mi Calm Calm - N/A   Overcast
7:29 AM 60.8 °F 57.2 °F 88% 30.02 in 10.0 mi SSE 3.5 mph - N/A   Overcast
7:49 AM 60.8 °F 57.2 °F 88% 30.03 in 10.0 mi Calm Calm - N/A   Mostly Cloudy
8:29 AM 62.6 °F 59.0 °F 88% 30.04 in 10.0 mi SW 5.8 mph - N/A   Mostly Cloudy
8:49 AM 62.6 °F 59.0 °F 88% 30.04 in 10.0 mi SSW 4.6 mph - N/A   Overcast
9:09 AM 62.6 °F 59.0 °F 88% 30.04 in 10.0 mi South 4.6 mph - N/A   Overcast
9:29 AM 62.6 °F 59.0 °F 88% 30.05 in 10.0 mi South 5.8 mph - N/A   Overcast
9:48 AM 62.6 °F 60.8 °F 94% 30.05 in 10.0 mi South 5.8 mph - N/A   Overcast
10:09 AM 62.6 °F 60.8 °F 94% 30.05 in 10.0 mi South 8.1 mph - N/A   Overcast
10:29 AM 64.4 °F 59.0 °F 83% 30.05 in 10.0 mi South 3.5 mph - N/A   Overcast
10:49 AM 66.2 °F 60.8 °F 83% 30.05 in 10.0 mi SSE 4.6 mph - N/A   Mostly Cloudy
11:09 AM 68.0 °F 60.8 °F 78% 30.04 in 10.0 mi South 5.8 mph - N/A   Mostly Cloudy
11:29 AM 69.8 °F 60.8 °F 73% 30.04 in 10.0 mi SSE 4.6 mph - N/A   Scattered Clouds
11:49 AM 71.6 °F 60.8 °F 69% 30.03 in 10.0 mi SSE 3.5 mph - N/A   Scattered Clouds
12:09 PM 69.8 °F 60.8 °F 73% 30.03 in 10.0 mi SSW 4.6 mph - N/A   Mostly Cloudy
12:29 PM 71.6 °F 60.8 °F 69% 30.03 in 10.0 mi Calm Calm - N/A   Scattered Clouds
12:49 PM 73.4 °F 60.8 °F 65% 30.02 in 10.0 mi Calm Calm - N/A   Scattered Clouds
1:09 PM 73.4 °F 60.8 °F 65% 30.02 in 10.0 mi Calm Calm - N/A   Mostly Cloudy
1:29 PM 73.4 °F 59.0 °F 61% 30.02 in 10.0 mi Calm Calm - N/A   Scattered Clouds
1:49 PM 73.4 °F 59.0 °F 61% 30.02 in 10.0 mi Calm Calm - N/A   Scattered Clouds
2:09 PM 73.4 °F 60.8 °F 65% 30.02 in 10.0 mi Calm Calm - N/A   Scattered Clouds
2:29 PM 73.4 °F 60.8 °F 65% 30.02 in 10.0 mi Calm Calm - N/A   Scattered Clouds
2:49 PM 75.2 °F 59.0 °F 57% 30.01 in 10.0 mi Calm Calm - N/A   Clear
3:09 PM 75.2 °F 60.8 °F 61% 30.01 in 10.0 mi Calm Calm - N/A   Clear
3:29 PM 77.0 °F 60.8 °F 57% 30.00 in 10.0 mi WSW 5.8 mph - N/A   Mostly Cloudy
3:49 PM 77.0 °F 57.2 °F 50% 30.00 in 10.0 mi WNW 3.5 mph - N/A   Scattered Clouds
4:09 PM 73.4 °F 60.8 °F 65% 30.00 in 10.0 mi North 4.6 mph - N/A   Scattered Clouds
4:29 PM 73.4 °F 60.8 °F 65% 30.00 in 10.0 mi North 8.1 mph - N/A   Scattered Clouds
4:49 PM 71.6 °F 60.8 °F 69% 30.00 in 10.0 mi NNW 8.1 mph - N/A   Mostly Cloudy
5:08 PM 73.4 °F 60.8 °F 65% 30.00 in 10.0 mi North 4.6 mph - N/A   Scattered Clouds
5:29 PM 75.2 °F 60.8 °F 61% 30.00 in 10.0 mi North 5.8 mph - N/A   Scattered Clouds
5:48 PM 73.4 °F 60.8 °F 65% 30.00 in 10.0 mi North 4.6 mph - N/A   Scattered Clouds
6:09 PM 75.2 °F 60.8 °F 61% 30.00 in 10.0 mi NNW 8.1 mph - N/A   Clear
6:29 PM 73.4 °F 57.2 °F 57% 30.01 in 10.0 mi NNW 8.1 mph - N/A   Clear
6:49 PM 73.4 °F 59.0 °F 61% 30.00 in 10.0 mi NW 4.6 mph - N/A   Scattered Clouds
7:09 PM 73.4 °F 59.0 °F 61% 30.00 in 10.0 mi North 5.8 mph - N/A   Scattered Clouds
7:29 PM 69.8 °F 60.8 °F 73% 30.00 in 10.0 mi North 4.6 mph - N/A   Scattered Clouds
7:49 PM 71.6 °F 60.8 °F 69% 30.00 in 10.0 mi Calm Calm - N/A   Clear
8:08 PM 69.8 °F 59.0 °F 68% 30.00 in 10.0 mi NNW 5.8 mph - N/A   Clear
8:29 PM 66.2 °F 57.2 °F 73% 30.00 in 10.0 mi NNW 4.6 mph - N/A   Clear
8:48 PM 64.4 °F 57.2 °F 77% 30.01 in 10.0 mi NW 3.5 mph - N/A   Clear
9:09 PM 64.4 °F 57.2 °F 77% 30.01 in 10.0 mi NW 3.5 mph - N/A   Clear
9:29 PM 60.8 °F 57.2 °F 88% 30.02 in 10.0 mi NW 5.8 mph - N/A   Clear
9:49 PM 60.8 °F 55.4 °F 82% 30.02 in 10.0 mi NW 5.8 mph - N/A   Clear
10:09 PM 60.8 °F 55.4 °F 82% 30.02 in 10.0 mi NW 5.8 mph - N/A   Clear
10:29 PM 60.8 °F 55.4 °F 82% 30.03 in 10.0 mi NW 4.6 mph - N/A   Clear
10:48 PM 59.0 °F 55.4 °F 88% 30.03 in 10.0 mi NW 4.6 mph - N/A   Clear
11:09 PM 59.0 °F 55.4 °F 88% 30.03 in 10.0 mi NW 4.6 mph - N/A   Clear
11:28 PM 57.2 °F 53.6 °F 88% 30.03 in 10.0 mi WNW 3.5 mph - N/A   Clear
11:49 PM 57.2 °F 53.6 °F 88% 30.03 in 10.0 mi WNW 3.5 mph - N/A   Clear